Flag for Sweden Weather past 2 weeks in Karlstad, Sweden

Now
37 °F

Passing clouds.


Feels Like: 33 °F
Forecast: 35 / 40 °F
Wind: 6 mph from South

Location: Karlstad

Current Time: Dec 18, 2014 at 9:00:52 PM

Latest Report: Dec 18, 2014 at 8:20 PM


Visibility: N/A

Pressure: 29.18 "Hg

Humidity: 100%

Dew point: 37 °F

Location of KarlstadLocation

Historic Weather in Karlstad — Graph

°F

Karlstad temperature yesterday

Maximum temperature yesterday: 32 °F (at 12:20 AM)
Minimum temperature yesterday: 23 °F (at 4:50 PM)
Average temperature yesterday: 27 °F

Past Weeks' High & Low Weather Summary

 TemperatureHumidityPressure
High43 °F (Dec 7, 12:20 PM)100% (Dec 3, 7:20 PM)30.21 "Hg (Dec 3, 7:20 PM)
Low21 °F (Dec 9, 8:20 AM)75% (Dec 15, 11:50 PM)28.94 "Hg (Dec 12, 10:20 PM)
Average34 °F96%29.53 "Hg
* Reported Dec 3 7:20 PM — Dec 18 7:50 PM, Karlstad, Weather by CustomWeather, © 2014

Note: Actual official high and low records may vary slightly from our data, if they occured in-between our weather recording intervals... More about our weather records

Advertising

Karlstad weather history for previous 24 hours

 ConditionsComfort  
Time TempWeatherWind HumidityBarometerVisibility
7:50 PM
Dec 18
39 °FPassing clouds.8 mph93%29.18 "HgN/A
7:20 PM39 °FClear.9 mph100%29.18 "Hg10 mi
6:50 PM41 °FPassing clouds.9 mph93%29.18 "HgN/A
6:20 PM43 °FPartly cloudy.10 mph93%29.21 "HgN/A
5:50 PM41 °FPassing clouds.9 mph100%29.21 "HgN/A
5:20 PM39 °FPassing clouds.10 mph100%29.21 "HgN/A
4:20 PM39 °FPassing clouds.7 mph100%29.24 "HgN/A
3:50 PM39 °FPassing clouds.8 mph100%29.24 "HgN/A
3:20 PM39 °FPassing clouds.9 mph100%29.24 "HgN/A
2:50 PM39 °FBroken clouds.7 mph100%29.24 "HgN/A
2:20 PM39 °FBroken clouds.8 mph100%29.27 "HgN/A
1:50 PM39 °FRain showers. Partly sunny.8 mph100%29.27 "Hg6 mi
1:20 PM39 °FPartly sunny.7 mph100%29.30 "HgN/A
12:50 PM39 °FBroken clouds.8 mph93%29.30 "HgN/A
12:20 PM37 °FPartly sunny.8 mph100%29.30 "HgN/A
11:50 AM37 °FPartly sunny.6 mph100%29.30 "HgN/A
11:20 AM36 °FPartly sunny.5 mph100%29.30 "HgN/A
10:50 AM36 °FPartly sunny.3 mph100%29.33 "HgN/A
10:20 AM36 °FPartly sunny.6 mph100%29.33 "HgN/A
9:50 AM36 °FPartly sunny.8 mph100%29.33 "HgN/A
9:20 AM36 °FPartly sunny.7 mph100%29.33 "HgN/A
8:50 AM37 °FPassing clouds.8 mph93%29.33 "HgN/A
8:20 AM37 °FLow clouds.6 mph93%29.33 "HgN/A
7:50 AM37 °FPassing clouds.9 mph100%29.33 "HgN/A
7:20 AM37 °FFog.9 mph100%29.33 "Hg4 mi
6:50 AM37 °FFog.9 mph100%29.30 "Hg1 mi
6:20 AM36 °FFog.10 mph100%29.33 "Hg3 mi
5:50 AM36 °FFog.12 mph100%29.33 "Hg4 mi
5:20 AM36 °FLow clouds.12 mph100%29.33 "HgN/A
4:20 AM36 °FLow clouds.13 mph100%29.33 "HgN/A
3:50 AM36 °FLow clouds.10 mph100%29.36 "HgN/A
3:20 AM36 °FPartly cloudy.13 mph100%29.36 "Hg4 mi
2:50 AM34 °FLight rain. Low clouds.9 mph100%29.36 "Hg4 mi
2:20 AM30 °FLight freezing rain. Mostly cloudy.5 mph100%29.39 "Hg3 mi
1:50 AM30 °FLight snow. Overcast.6 mph100%29.39 "Hg2 mi
1:20 AM28 °FLight snow. Overcast.5 mph100%29.42 "Hg1 mi
12:50 AM27 °FLight snow. Mostly cloudy.5 mph100%29.42 "Hg2 mi
12:20 AM27 °FPartly cloudy.5 mph100%29.42 "HgN/A
11:50 PM
Dec 17
27 °FPassing clouds.6 mph93%29.45 "HgN/A
11:20 PM25 °FPassing clouds.3 mph100%29.45 "HgN/A
10:50 PM25 °FPassing clouds.3 mph100%29.45 "HgN/A
10:20 PM23 °FPassing clouds.2 mph100%29.45 "HgN/A
9:50 PM25 °FPassing clouds.2 mph100%29.47 "HgN/A
9:20 PM25 °FPassing clouds.5 mph100%29.47 "HgN/A
Weather by CustomWeather, © 2014

See weather overviewHow to use our weather pages